Hauptseite
METAR-TAF:

METAR-TAF

Flughäfen :

Bohrplattform

Awg-1, Niederlande

Breite: 53-29-30N, Länge: 5-56-30E, Höhe: 33 m

Beobachtung

Neuester Wetterbericht von vor 31 Minuten, um 17:25 UTC
Wind 7 kt aus Süd, variierte zwischen Ost/Südost und Südwest
Temperatur 7°C
Luftfeuchtigkeit 81%
Luftdruck 1001 hPa
Sichtweite 10 km oder mehr
Aufgelockert bewölkt in der Höhe von 2300 ft

METAR: EHMA 251725Z AUTO 17007KT 120V230 9999 SCT023 07/04 Q1001

Zeit: 18:56 (17:56 UTC)


TAF: fehlend

Wetterbeobachtungen und Prognosen von mehr als 4000 Flughäfen (METAR und TAF Bericht).

Die verfügbaren Stationen werden durch gelbe und rote Markierungen auf der Karte dargestellt.

Führen Sie die Maus auf sie, um den Namen der Station zu sehen.

Darauf klicken, um die Beobachtung von Wetterbeobachtungen und Prognosen zu sehen.

Um die Karte zu ändern : klicken Sie auf den grünen Tasten mit einem schwarzen Kreuz Zum Vergrößern, auf den grünen Button mit einem Gedankenstrich zu verkleinern, oder auf die grünen Pfeile für benachbarte Karten.


METAR-TAF: